Oxford, MS

7:56 AM CDT on July 27, 2017 (GMT -0500)
University-Oxford

Weather History for KUOX - February, 2013

Change the Weather History Date:

Tuesday, February 19, 2013

  Actual Average Record
Temperature  
Mean Temperature 38 °F -  
Max Temperature 50 °F 55 °F 76 °F (1961)
Min Temperature 26 °F 32 °F 8 °F (1978)
Degree Days  
Heating Degree Days 27    
Moisture  
Dew Point 27 °F    
Average Humidity 64    
Maximum Humidity 100    
Minimum Humidity 30    
Precipitation  
Precipitation 0.00 in - - ()
Sea Level Pressure  
Sea Level Pressure 30.21 in    
Wind  
Wind Speed 8 mph (NNW)    
Max Wind Speed 14 mph    
Max Gust Speed 22 mph    
Visibility 9 miles    
Events      
Averages and records for this station are not official NWS values.
T = Trace of Precipitation, MM = Missing Value Source: NWS Daily Summary

Daily Weather History Graph

Daily Weather History Graph

Search for Another Location

Airport or City:

Trip Planner

Search our weather history database for the weather conditions in past years. The results will help you decide how hot, cold, wet, or windy it might be!

Date:

Astronomy

Feb. 19, 2013 Rise Set
Actual Time 6:38 AM CST 5:45 PM CST
Civil Twilight 6:13 AM CST 6:11 PM CST
Nautical Twilight 5:43 AM CST 6:40 PM CST
Astronomical Twilight 5:14 AM CST 7:09 PM CST
Moon 12:25 PM CST (2/19) 2:02 AM CST (2/19)
Length of Visible Light 11h 58m
Length of Day
11h 06m
Waxing Gibbous, 67% of the Moon is Illuminated
Feb 19
Waxing Gibbous
Feb 25
Full
Mar 4
Last Quarter
Mar 11
New
Mar 19
First Quarter

Hourly Weather History & Observations

Time (CST) Temp. Windchill Dew Point Humidity Pressure Visibility Wind Dir Wind Speed Gust Speed Precip Events Conditions
12:15 AM 50.0 °F - 50.0 °F 100% 29.96 in 10.0 mi WNW 8.1 mph - N/A   Overcast
12:55 AM 46.4 °F 41.5 °F 41.0 °F 81% 30.00 in 9.0 mi NW 10.4 mph 17.3 mph N/A   Overcast
1:15 AM 44.6 °F 39.2 °F 39.2 °F 81% 30.01 in 9.0 mi NNW 10.4 mph - N/A   Mostly Cloudy
1:55 AM 42.8 °F 37.0 °F 35.6 °F 76% 30.03 in 10.0 mi NNW 10.4 mph 19.6 mph N/A   Clear
2:15 AM 41.0 °F 34.7 °F 35.6 °F 81% 30.03 in 10.0 mi North 10.4 mph - N/A   Clear
2:35 AM 41.0 °F 37.1 °F 35.6 °F 81% 30.04 in 10.0 mi North 5.8 mph - N/A   Clear
2:55 AM 41.0 °F 37.1 °F 35.6 °F 81% 30.05 in 10.0 mi NNW 5.8 mph - N/A   Clear
3:15 AM 39.2 °F 35.0 °F 35.6 °F 87% 30.05 in 9.0 mi NNW 5.8 mph - N/A   Clear
3:35 AM 39.2 °F 33.6 °F 35.6 °F 87% 30.06 in 10.0 mi NNW 8.1 mph - N/A   Clear
4:15 AM 39.2 °F 34.2 °F 33.8 °F 81% 30.08 in 9.0 mi NNW 6.9 mph - N/A   Clear
4:35 AM 39.2 °F 34.2 °F 33.8 °F 81% 30.09 in 9.0 mi NNW 6.9 mph - N/A   Clear
4:55 AM 37.4 °F 32.1 °F 32.0 °F 81% 30.10 in 9.0 mi NNW 6.9 mph - N/A   Clear
5:15 AM 37.4 °F 32.1 °F 32.0 °F 81% 30.12 in 10.0 mi NNW 6.9 mph 16.1 mph N/A   Clear
5:35 AM 37.4 °F 30.3 °F 32.0 °F 81% 30.14 in 10.0 mi NNW 10.4 mph - N/A   Clear
6:15 AM 35.6 °F 28.0 °F 28.4 °F 75% 30.15 in 10.0 mi NNW 10.4 mph - N/A   Clear
6:35 AM 35.6 °F 28.6 °F 30.2 °F 81% 30.17 in 8.0 mi NNW 9.2 mph - N/A   Clear
6:55 AM 35.6 °F 28.6 °F 28.4 °F 75% 30.17 in 8.0 mi NNW 9.2 mph - N/A   Clear
7:15 AM 35.6 °F 29.9 °F 28.4 °F 75% 30.19 in 8.0 mi NNW 6.9 mph - N/A   Clear
7:55 AM 35.6 °F 27.5 °F 28.4 °F 75% 30.21 in 7.0 mi NNW 11.5 mph - N/A   Clear
8:15 AM 35.6 °F 27.5 °F 26.6 °F 70% 30.23 in 8.0 mi NW 11.5 mph - N/A   Clear
8:35 AM 37.4 °F 30.8 °F 26.6 °F 65% 30.23 in 8.0 mi NNW 9.2 mph - N/A   Clear
8:55 AM 39.2 °F 32.5 °F 26.6 °F 61% 30.24 in 9.0 mi NW 10.4 mph - N/A   Clear
9:15 AM 39.2 °F 32.0 °F 26.6 °F 61% 30.25 in 8.0 mi NW 11.5 mph - N/A   Clear
9:55 AM 41.0 °F 35.2 °F 24.8 °F 53% 30.26 in 9.0 mi NNW 9.2 mph - N/A   Clear
10:15 AM 41.0 °F 35.8 °F 24.8 °F 53% 30.26 in 9.0 mi NNW 8.1 mph - N/A   Clear
10:35 AM 41.0 °F 35.2 °F 23.0 °F 49% 30.26 in 9.0 mi NNW 9.2 mph - N/A   Clear
10:55 AM 44.6 °F 39.2 °F 23.0 °F 43% 30.27 in 8.0 mi WNW 10.4 mph - N/A   Clear
11:15 AM 44.6 °F 40.2 °F 23.0 °F 43% 30.27 in 9.0 mi NW 8.1 mph 17.3 mph N/A   Clear
11:35 AM 44.6 °F 40.2 °F 23.0 °F 43% 30.26 in 9.0 mi NW 8.1 mph - N/A   Clear
11:55 AM 46.4 °F 41.5 °F 24.8 °F 43% 30.26 in 9.0 mi NW 10.4 mph 17.3 mph N/A   Clear
12:15 PM 46.4 °F 40.7 °F 23.0 °F 40% 30.26 in 7.0 mi NNW 12.7 mph 17.3 mph N/A   Clear
12:55 PM 48.2 °F - 21.2 °F 34% 30.25 in 7.0 mi NW 12.7 mph 21.9 mph N/A   Clear
1:15 PM 48.2 °F - 23.0 °F 37% 30.25 in 9.0 mi NNW 12.7 mph - N/A   Clear
1:35 PM 48.2 °F - 21.2 °F 34% 30.25 in 9.0 mi NW 11.5 mph 19.6 mph N/A   Clear
1:55 PM 48.2 °F - 23.0 °F 37% 30.25 in 9.0 mi NW 9.2 mph 17.3 mph N/A   Clear
2:15 PM 48.2 °F - 17.6 °F 30% 30.25 in 10.0 mi NNW 13.8 mph 21.9 mph N/A   Clear
2:35 PM 48.2 °F - 19.4 °F 32% 30.25 in 9.0 mi NW 13.8 mph 17.3 mph N/A   Clear
2:55 PM 48.2 °F - 19.4 °F 32% 30.24 in 10.0 mi NNW 13.8 mph 18.4 mph N/A   Clear
3:15 PM 48.2 °F - 21.2 °F 34% 30.25 in 8.0 mi NW 11.5 mph 18.4 mph N/A   Clear
3:35 PM 48.2 °F - 23.0 °F 37% 30.25 in 8.0 mi WNW 11.5 mph 18.4 mph N/A   Clear
3:55 PM 48.2 °F - 21.2 °F 34% 30.26 in 8.0 mi NW 12.7 mph - N/A   Clear
4:15 PM 48.2 °F - 21.2 °F 34% 30.26 in 8.0 mi NW 11.5 mph - N/A   Clear
4:35 PM 46.4 °F 40.7 °F 17.6 °F 32% 30.26 in 10.0 mi NNW 12.7 mph 16.1 mph N/A   Clear
4:55 PM 46.4 °F 41.5 °F 19.4 °F 34% 30.25 in 9.0 mi NNW 10.4 mph - N/A   Clear
5:15 PM 44.6 °F 39.7 °F 17.6 °F 34% 30.24 in 8.0 mi NNW 9.2 mph - N/A   Clear
6:15 PM 41.0 °F - 21.2 °F 45% 30.25 in 10.0 mi Calm Calm - N/A   Clear
6:35 PM 41.0 °F 39.0 °F 23.0 °F 49% 30.25 in 10.0 mi WNW 3.5 mph - N/A   Clear
6:55 PM 37.4 °F - 24.8 °F 60% 30.26 in 10.0 mi Calm Calm - N/A   Clear
7:15 PM 35.6 °F - 26.6 °F 70% 30.27 in 10.0 mi Calm Calm - N/A   Clear
7:35 PM 35.6 °F - 26.6 °F 70% 30.27 in 10.0 mi Calm Calm - N/A   Clear
7:55 PM 32.0 °F - 26.6 °F 80% 30.28 in 10.0 mi Calm Calm - N/A   Clear
8:15 PM 32.0 °F - 26.6 °F 80% 30.27 in 10.0 mi Calm Calm - N/A   Clear
8:35 PM 32.0 °F - 26.6 °F 80% 30.27 in 10.0 mi Calm Calm - N/A   Clear
8:55 PM 32.0 °F - 24.8 °F 75% 30.27 in 10.0 mi Calm Calm - N/A   Clear
9:15 PM 32.0 °F - 26.6 °F 80% 30.28 in 10.0 mi Calm Calm - N/A   Clear
9:35 PM 28.4 °F - 24.8 °F 86% 30.29 in 10.0 mi Calm Calm - N/A   Clear
9:55 PM 28.4 °F - 26.6 °F 93% 30.29 in 10.0 mi Calm Calm - N/A   Clear
10:15 PM 28.4 °F - 24.8 °F 86% 30.28 in 10.0 mi Calm Calm - N/A   Clear
10:35 PM 28.4 °F - 26.6 °F 93% 30.28 in 10.0 mi Calm Calm - N/A   Clear
10:55 PM 28.4 °F - 24.8 °F 86% 30.28 in 10.0 mi Calm Calm - N/A   Clear
11:15 PM 28.4 °F - 24.8 °F 86% 30.29 in 10.0 mi Calm Calm - N/A   Clear
11:35 PM 26.6 °F - 24.8 °F 93% 30.29 in 9.0 mi Calm Calm - N/A   Clear
11:55 PM 26.6 °F - 24.8 °F 93% 30.29 in 9.0 mi Calm Calm - N/A   Clear